Location: Cortada Guamacho
(10.5667°N, 67.0833°W)
Time: 07:10:41
(UTC+00:00)

ISS - Visible Passes

Search period start: 09 December 2022 00:00
Search period end: 19 December 2022 00:00
Orbit: 414 x 420 km, 51.6° (Epoch: 09 December)

Date Brightness Start Highest point End Pass type
(mag) Time Alt. Az. Time Alt. Az. Time Alt. Az.
09 Dec -1.1 00:03:03 10° WNW 00:05:06 20° WSW 00:05:06 20° WSW visible
09 Dec -2.9 23:14:16 10° NW 23:17:30 51° SW 23:20:44 10° SSE visible
10 Dec -3.8 22:26:01 10° NNW 22:29:17 59° NE 22:32:34 10° SE visible
11 Dec 0.0 23:16:45 10° WSW 23:17:31 11° SW 23:18:19 10° SW visible
13 Dec -0.8 10:07:08 10° S 10:09:50 22° SE 10:12:30 10° ENE visible
14 Dec 0.1 09:21:12 10° SE 09:21:33 10° SE 09:21:53 10° ESE visible
15 Dec -3.8 10:06:21 10° SW 10:09:40 65° NW 10:12:59 10° NNE visible
16 Dec -2.7 09:18:03 10° SSW 09:21:17 47° SE 09:24:31 10° NE visible
17 Dec -0.8 08:34:16 16° E 08:34:16 16° E 08:35:27 10° ENE visible
17 Dec -1.9 10:07:40 10° W 10:09:30 14° NW 10:11:20 10° NNW visible
18 Dec -1.2 09:23:47 11° N 09:23:47 11° N 09:23:58 10° N visible
